Simultaneous Nadir Overpasses (SNOs) Predictions

Prediction of SNOs between GOES-15 and LANDSAT-8 Satellite Orbit:

Table of predicted SNOs for the next 14.0 days since TLE Epoch: 3/23/2024
Index Date Time (GOES-15) GOES-15 Lat,Lon LANDSAT-8 Lat,Lon Distance(km) Time Diff (sec)
1 03/23/2024 06:20:36 -0.06, 61.22 0.72, 57.62 409.83 80
2 03/25/2024 06:08:22 -0.06, 61.23 0.08, 60.58 72.98 80
3 03/27/2024 05:58:48 -0.06, 61.23 -0.53, 63.55 263.58 80
4 03/27/2024 18:20:11 0.06, 61.18 -0.54, 58.36 321.10 80
5 03/29/2024 18:05:16 0.07, 61.20 0.11, 61.32 14.75 80
6 03/31/2024 17:53:00 0.07, 61.22 0.73, 64.29 349.67 80
7 04/01/2024 06:14:14 -0.08, 61.28 0.38, 59.14 243.40 80
8 04/03/2024 06:04:38 -0.09, 61.32 -0.28, 62.11 91.21 80
9 04/03/2024 18:26:01 0.09, 61.26 -0.81, 56.92 493.17 80
10 04/05/2024 05:52:21 -0.09, 61.35 -0.91, 65.09 425.86 80
11 04/05/2024 18:13:44 0.10, 61.30 -0.18, 59.90 158.55 80
